• In United Kingdom
  • List of Countries
  • For 7 days
  • Water Temperature
  • Satellite Maps
  • Weather Map
  • Weather Widgets
  • user-avatar
    Login

    Hourly Weather Solden

    Today, 24 August, Thursday

    Time Temperature Precipitation Wind Pressure Humidity
    00:00 +7°C° 0 mm 1 mps 586 mmHg 77%
    01:00 +7°C° 0 mm 1 mps 586 mmHg 76%
    02:00 +6°C° 0 mm 1 mps 585 mmHg 75%
    03:00 +6°C° 0 mm 1 mps 585 mmHg 74%
    04:00 +6°C° 0 mm 1 mps 585 mmHg 73%
    05:00 +8°C° 0 mm 1 mps 586 mmHg 70%
    06:00 +9°C° 0 mm 1 mps 587 mmHg 67%
    07:00 +11°C° 0 mm 1 mps 588 mmHg 64%
    08:00 +13°C° 0 mm 1 mps 589 mmHg 55%
    09:00 +15°C° 0 mm 1 mps 590 mmHg 47%
    10:00 +19°C° 0 mm 1 mps 591 mmHg 39%
    11:00 +19°C° 0 mm 1 mps 591 mmHg 37%
    12:00 +20°C° 0 mm 1 mps 592 mmHg 36%
    13:00 +20°C° 0 mm 2 mps 592 mmHg 35%
    14:00 +19°C° 0.2 mm 2 mps 591 mmHg 40%
    15:00 +18°C° 0.2 mm 2 mps 591 mmHg 45%
    16:00 +17°C° 0.2 mm 2 mps 590 mmHg 50%
    17:00 +15°C° 0.6 mm 1 mps 590 mmHg 59%
    18:00 +13°C° 0.6 mm 1 mps 589 mmHg 69%
    19:00 +11°C° 0.6 mm 1 mps 588 mmHg 79%
    20:00 +10°C° 0.3 mm 1 mps 588 mmHg 82%
    21:00 +10°C° 0.3 mm 1 mps 588 mmHg 84%
    22:00 +9°C° 0.3 mm 1 mps 588 mmHg 86%
    23:00 +9°C° 0.1 mm 1 mps 588 mmHg 87%

    Tomorrow, 25 August, Friday

    Time Temperature Precipitation Wind Pressure Humidity
    00:00 +8°C° 0.1 mm 1 mps 588 mmHg 87%
    01:00 +8°C° 0.1 mm 1 mps 587 mmHg 87%
    02:00 +8°C° 0 mm 1 mps 587 mmHg 87%
    03:00 +8°C° 0 mm 1 mps 587 mmHg 86%
    04:00 +7°C° 0 mm 1 mps 587 mmHg 85%
    05:00 +8°C° 0 mm 1 mps 587 mmHg 82%
    06:00 +9°C° 0 mm 1 mps 588 mmHg 78%
    07:00 +10°C° 0 mm 1 mps 588 mmHg 75%
    08:00 +13°C° 0 mm 1 mps 589 mmHg 66%
    09:00 +15°C° 0 mm 1 mps 590 mmHg 56%
    10:00 +16°C° 0 mm 0 mps 592 mmHg 47%
    11:00 +19°C° 0 mm 1 mps 592 mmHg 45%
    12:00 +20°C° 0 mm 1 mps 592 mmHg 43%
    13:00 +20°C° 0 mm 1 mps 592 mmHg 41%
    14:00 +20°C° 0.3 mm 1 mps 591 mmHg 44%
    15:00 +19°C° 0.3 mm 1 mps 591 mmHg 48%
    16:00 +19°C° 0.3 mm 1 mps 591 mmHg 51%
    17:00 +16°C° 0.5 mm 1 mps 590 mmHg 61%
    18:00 +14°C° 0.5 mm 1 mps 589 mmHg 71%
    19:00 +12°C° 0.5 mm 1 mps 588 mmHg 81%
    20:00 +11°C° 0.5 mm 1 mps 588 mmHg 82%
    21:00 +11°C° 0.5 mm 1 mps 588 mmHg 83%
    22:00 +11°C° 0.5 mm 1 mps 588 mmHg 84%
    23:00 +10°C° 0.1 mm 1 mps 588 mmHg 84%

    Day after tomorrow, 26 August, Saturday

    Time Temperature Precipitation Wind Pressure Humidity
    00:00 +10°C° 0.1 mm 1 mps 588 mmHg 85%
    01:00 +9°C° 0.1 mm 1 mps 587 mmHg 85%
    02:00 +9°C° 0 mm 1 mps 587 mmHg 84%
    03:00 +9°C° 0 mm 1 mps 587 mmHg 84%
    04:00 +8°C° 0 mm 1 mps 587 mmHg 83%
    05:00 +10°C° 0 mm 1 mps 587 mmHg 80%
    06:00 +11°C° 0 mm 1 mps 588 mmHg 77%
    07:00 +12°C° 0 mm 1 mps 588 mmHg 74%
    08:00 +14°C° 0 mm 1 mps 589 mmHg 64%
    09:00 +16°C° 0 mm 1 mps 590 mmHg 55%
    10:00 +20°C° 0 mm 1 mps 591 mmHg 46%
    11:00 +20°C° 0.2 mm 1 mps 592 mmHg 44%
    12:00 +21°C° 0.2 mm 1 mps 592 mmHg 42%
    13:00 +21°C° 0.2 mm 1 mps 592 mmHg 40%
    14:00 +21°C° 0.5 mm 1 mps 591 mmHg 43%
    15:00 +20°C° 0.5 mm 1 mps 591 mmHg 46%
    16:00 +19°C° 0.5 mm 1 mps 590 mmHg 49%
    17:00 +16°C° 0.8 mm 1 mps 589 mmHg 58%
    18:00 +15°C° 0.8 mm 1 mps 589 mmHg 67%
    19:00 +12°C° 0.8 mm 0 mps 588 mmHg 75%
    20:00 +11°C° 0.3 mm 0 mps 588 mmHg 76%
    21:00 +12°C° 0.3 mm 1 mps 588 mmHg 76%
    22:00 +11°C° 0.3 mm 1 mps 588 mmHg 77%
    23:00 +11°C° 0 mm 1 mps 587 mmHg 77%

    27 August, Sunday

    Time Temperature Precipitation Wind Pressure Humidity
    00:00 +10°C° 0 mm 1 mps 587 mmHg 78%
    01:00 +9°C° 0 mm 1 mps 587 mmHg 78%
    02:00 +9°C° 0 mm 1 mps 587 mmHg 78%
    03:00 +9°C° 0 mm 1 mps 586 mmHg 78%
    04:00 +9°C° 0 mm 1 mps 586 mmHg 77%
    05:00 +10°C° 0 mm 1 mps 587 mmHg 75%
    06:00 +11°C° 0 mm 1 mps 588 mmHg 72%
    07:00 +12°C° 0 mm 1 mps 588 mmHg 69%
    08:00 +15°C° 0 mm 1 mps 589 mmHg 60%
    09:00 +18°C° 0 mm 1 mps 590 mmHg 50%
    10:00 +20°C° 0 mm 1 mps 591 mmHg 40%
    11:00 +21°C° 0.1 mm 1 mps 592 mmHg 38%
    12:00 +22°C° 0.1 mm 1 mps 592 mmHg 36%
    13:00 +23°C° 0.1 mm 1 mps 592 mmHg 34%
    14:00 +22°C° 0.2 mm 1 mps 591 mmHg 38%
    15:00 +21°C° 0.2 mm 1 mps 591 mmHg 42%
    16:00 +21°C° 0.2 mm 1 mps 590 mmHg 45%
    17:00 +18°C° 0.9 mm 1 mps 589 mmHg 54%
    18:00 +15°C° 0.9 mm 1 mps 589 mmHg 63%
    19:00 +12°C° 0.9 mm 0 mps 588 mmHg 72%
    20:00 +12°C° 0.5 mm 0 mps 588 mmHg 74%
    21:00 +12°C° 0.5 mm 1 mps 588 mmHg 75%
    22:00 +11°C° 0.5 mm 1 mps 588 mmHg 77%
    23:00 +11°C° 0.2 mm 1 mps 587 mmHg 78%

    28 August, Monday

    Time Temperature Precipitation Wind Pressure Humidity
    00:00 +10°C° 0.2 mm 1 mps 587 mmHg 79%
    01:00 +9°C° 0.2 mm 1 mps 587 mmHg 80%
    02:00 +9°C° 0.1 mm 1 mps 586 mmHg 80%
    03:00 +9°C° 0.1 mm 1 mps 586 mmHg 79%
    04:00 +9°C° 0.1 mm 1 mps 586 mmHg 79%
    05:00 +10°C° 0.1 mm 1 mps 587 mmHg 77%
    06:00 +11°C° 0.1 mm 1 mps 588 mmHg 75%
    07:00 +12°C° 0.1 mm 1 mps 588 mmHg 73%
    08:00 +14°C° 0 mm 1 mps 589 mmHg 64%
    09:00 +17°C° 0 mm 2 mps 590 mmHg 55%
    10:00 +19°C° 0 mm 2 mps 591 mmHg 46%
    11:00 +20°C° 0.1 mm 2 mps 592 mmHg 43%
    12:00 +21°C° 0.1 mm 2 mps 592 mmHg 40%
    13:00 +23°C° 0.1 mm 1 mps 592 mmHg 37%
    14:00 +22°C° 0.1 mm 1 mps 592 mmHg 39%
    15:00 +22°C° 0.1 mm 1 mps 591 mmHg 41%
    16:00 +21°C° 0.1 mm 1 mps 591 mmHg 43%
    17:00 +19°C° 0.1 mm 1 mps 590 mmHg 52%
    18:00 +15°C° 0.1 mm 1 mps 589 mmHg 61%
    19:00 +13°C° 0.1 mm 1 mps 588 mmHg 70%
    20:00 +12°C° 0.1 mm 1 mps 588 mmHg 73%
    21:00 +11°C° 0.1 mm 1 mps 587 mmHg 76%
    22:00 +10°C° 0.1 mm 1 mps 587 mmHg 79%
    23:00 +10°C° 0 mm 1 mps 587 mmHg 79%

    29 August, Tuesday

    Time Temperature Precipitation Wind Pressure Humidity
    00:00 +9°C° 0 mm 1 mps 587 mmHg 80%
    01:00 +9°C° 0 mm 1 mps 587 mmHg 80%
    02:00 +9°C° 0 mm 1 mps 586 mmHg 80%
    03:00 +9°C° 0 mm 1 mps 586 mmHg 80%
    04:00 +9°C° 0 mm 1 mps 586 mmHg 80%
    05:00 +10°C° 0 mm 1 mps 587 mmHg 78%
    06:00 +11°C° 0 mm 1 mps 587 mmHg 76%
    07:00 +12°C° 0 mm 1 mps 588 mmHg 74%
    08:00 +14°C° 0 mm 1 mps 589 mmHg 66%
    09:00 +18°C° 0 mm 1 mps 590 mmHg 57%
    10:00 +20°C° 0 mm 1 mps 591 mmHg 48%
    11:00 +21°C° 0 mm 1 mps 591 mmHg 46%
    12:00 +21°C° 0 mm 1 mps 591 mmHg 44%
    13:00 +22°C° 0 mm 1 mps 591 mmHg 42%
    14:00 +21°C° 0.2 mm 1 mps 591 mmHg 45%
    15:00 +21°C° 0.2 mm 1 mps 590 mmHg 48%
    16:00 +20°C° 0.2 mm 1 mps 590 mmHg 51%
    17:00 +18°C° 0.3 mm 1 mps 589 mmHg 60%
    18:00 +15°C° 0.3 mm 1 mps 588 mmHg 69%
    19:00 +13°C° 0.3 mm 1 mps 587 mmHg 79%
    20:00 +12°C° 0.2 mm 1 mps 587 mmHg 81%
    21:00 +12°C° 0.2 mm 1 mps 587 mmHg 83%
    22:00 +11°C° 0.2 mm 1 mps 587 mmHg 85%
    23:00 +11°C° 0.1 mm 1 mps 587 mmHg 85%
    Show more